Observations for Trim Patrick St
| Time | AQI | Temp °C | Hum % | Pres Pa | CO μg/m³ | H₂S μg/m³ | NO μg/m³ | NO₂ μg/m³ | O₃ μg/m³ | SO₂ μg/m³ | PM1 μg/m³ | PM2.5 μg/m³ | PM10 μg/m³ |
|---|---|---|---|---|---|---|---|---|---|---|---|---|---|
| Saturday 1 August 2026 | |||||||||||||
| 16:57 | 2 | 26.5 | 35 | 69,029 | 0 | 6.35 | 1.19 | 17.99 | 89.76 | 10.88 | 2.86 | 8.94 | 9.83 |
| 16:56 | 2 | 26.5 | 35 | 69,047 | 0 | 6.83 | 1.2 | 16.46 | 83.06 | 11.04 | 2.86 | 8.15 | 8.96 |
| 16:55 | 2 | 26.6 | 35 | 69,037 | 0 | 13.3 | 1.01 | 17.32 | 114.66 | 12.94 | 2.86 | 8.97 | 9.87 |
| 16:54 | 2 | 26.6 | 34 | 69,023 | 0 | 7.89 | 1.23 | 21.09 | 91.73 | 11.18 | 5.43 | 12.19 | 13.41 |
| 16:53 | 2 | 26.7 | 34 | 69,035 | 0 | 9.78 | 1.41 | 14.67 | 122.95 | 12.91 | 3.71 | 11.37 | 12.51 |
| 16:52 | 2 | 26.7 | 34 | 69,053 | 0 | 4.08 | 1.37 | 13.82 | 86.37 | 11.42 | 5.43 | 12.99 | 14.29 |
| 16:51 | 2 | 26.8 | 34 | 69,041 | 0 | 7.05 | 1.27 | 18.5 | 96.5 | 11.74 | 4.57 | 10.6 | 11.66 |
| 16:50 | 2 | 26.9 | 34 | 69,059 | 0 | 3.16 | 1.42 | 13.68 | 91.66 | 11.86 | 5.43 | 13.01 | 14.31 |
| 16:49 | 2 | 27 | 34 | 69,053 | 0 | 5.07 | 1.32 | 17.93 | 87.01 | 11.57 | 5.43 | 12.2 | 13.42 |
| 16:48 | 2 | 27 | 34 | 69,045 | 0 | 4.11 | 1.18 | 16.1 | 94.92 | 11.08 | 3.71 | 11.44 | 12.58 |
| 16:47 | 2 | 27.1 | 34 | 69,037 | 0 | 6.34 | 1.14 | 14.35 | 94.18 | 13.08 | 3.71 | 13.03 | 14.34 |
| 16:44 | 2 | 27.5 | 33 | 69,100 | 0 | 3.14 | 1.16 | 14.33 | 114.03 | 12.9 | 5.43 | 12.29 | 13.52 |
| 16:42 | 2 | 27.8 | 32 | 69,112 | 0 | 0 | 1.27 | 12.86 | 86.96 | 12.39 | 6.29 | 13.14 | 14.46 |
| 16:41 | 2 | 27.9 | 33 | 69,118 | 0 | 0 | 1.26 | 12.72 | 77.25 | 12.01 | 2.86 | 10.7 | 11.77 |
| 16:40 | 2 | 28 | 32 | 69,128 | 0 | 0 | 1.31 | 12.59 | 81.43 | 12.72 | 4.57 | 9.94 | 10.93 |
| 16:39 | 2 | 28.1 | 32 | 69,136 | 0 | 0 | 1.28 | 15.28 | 90.6 | 11.87 | 3.71 | 10.72 | 11.79 |
| 16:38 | 2 | 28.2 | 32 | 69,143 | 0 | 0 | 1.29 | 16.83 | 91.92 | 12.04 | 3.71 | 9.93 | 10.93 |
| 16:34 | 2 | 28.5 | 31 | 69,136 | 0 | 0 | 1.46 | 13.91 | 80.19 | 12.97 | 4.57 | 11.61 | 12.77 |
| 16:33 | 2 | 28.6 | 32 | 69,116 | 0 | 0 | 1.4 | 12.13 | 72.88 | 11.79 | 5.43 | 13.18 | 14.5 |
| 16:32 | 2 | 28.7 | 31 | 69,118 | 0 | 0 | 1.36 | 10.81 | 61.21 | 12.02 | 8.86 | 16.43 | 18.08 |